Weather History for Orange, MA

Change the Weather History Date:

Sunday, October 21, 2012

  Actual Average Record
Temperature  
Mean Temperature 48 °F -  
Max Temperature 61 °F 55 °F 73 °F (2000)
Min Temperature 35 °F 31 °F 26 °F (2002)
Degree Days  
Heating Degree Days 18    
Moisture  
Dew Point 38 °F    
Average Humidity 85    
Maximum Humidity 100    
Minimum Humidity 42    
Precipitation  
Precipitation 0.01 in - - ()
Sea Level Pressure  
Sea Level Pressure 29.83 in    
Wind  
Wind Speed 2 mph (West)    
Max Wind Speed 18 mph    
Max Gust Speed 28 mph    
Visibility 5 miles    
Events Fog    
Averages and records for this station are not official NWS values.
T = Trace of Precipitation, MM = Missing Value Source: NWS Daily Summary

Daily Weather History Graph

Daily Weather History Graph

Search for Another Location

Airport:

Trip Planner

Search our weather history database for the weather conditions in past years. The results will help you decide how hot, cold, wet, or windy it might be!

Date:

Astronomy

Oct. 21, 2012 Rise Set
Actual Time 7:09 AM EDT 5:56 PM EDT
Civil Twilight 6:41 AM EDT 6:25 PM EDT
Nautical Twilight 6:08 AM EDT 6:58 PM EDT
Astronomical Twilight 5:35 AM EDT 7:30 PM EDT
Moon 1:31 PM EDT (10/21) 11:45 PM EDT (10/21)
Length of Visible Light 11h 44m
Length of Day
10h 46m
Waxing Crescent, 45% of the Moon is Illuminated
Oct 21
Waxing Crescent
Oct 21
First Quarter
Oct 29
Full
Nov 6
Last Quarter
Nov 13
New

Hourly Weather History & Observations

Time (EDT) Temp. Dew Point Humidity Pressure Visibility Wind Dir Wind Speed Gust Speed Precip Events Conditions
12:52 AM 43.0 °F 41.0 °F 93% 29.79 in 10.0 mi Calm Calm - N/A   Clear
1:52 AM 41.0 °F 39.9 °F 96% 29.80 in 10.0 mi Calm Calm - N/A   Clear
2:11 AM 41.0 °F 39.2 °F 93% 29.79 in 1.8 mi Calm Calm - N/A   Partly Cloudy
2:15 AM 39.2 °F 39.2 °F 100% 29.79 in 1.0 mi Calm Calm - N/A   Mist
2:42 AM 39.2 °F 39.2 °F 100% 29.79 in 0.5 mi Calm Calm - N/A Fog Fog
2:50 AM 39.2 °F 39.2 °F 100% 29.80 in 1.5 mi Calm Calm - N/A   Mostly Cloudy
2:57 AM 39.2 °F 37.4 °F 93% 29.80 in 1.8 mi Calm Calm - N/A   Mostly Cloudy
2:59 AM 39.2 °F 37.4 °F 93% 29.80 in 1.0 mi Calm Calm - N/A   Mist
3:07 AM 39.2 °F 37.4 °F 93% 29.80 in 0.8 mi Calm Calm - N/A   Mist
3:10 AM 39.2 °F 37.4 °F 93% 29.80 in 1.2 mi Calm Calm - N/A   Scattered Clouds
3:14 AM 39.2 °F 37.4 °F 93% 29.80 in 2.0 mi Calm Calm - N/A   Scattered Clouds
3:22 AM 37.4 °F 37.4 °F 100% 29.80 in 10.0 mi Calm Calm - N/A   Partly Cloudy
3:35 AM 37.4 °F 37.4 °F 100% 29.80 in 1.8 mi Calm Calm - N/A   Partly Cloudy
3:38 AM 37.4 °F 37.4 °F 100% 29.80 in 1.0 mi Calm Calm - N/A   Mist
3:52 AM 37.0 °F 37.0 °F 100% 29.81 in 1.2 mi Calm Calm - N/A   Partly Cloudy
3:55 AM 37.4 °F 37.4 °F 100% 29.81 in 2.0 mi Calm Calm - N/A   Partly Cloudy
3:59 AM 37.4 °F 37.4 °F 100% 29.81 in 1.2 mi Calm Calm - N/A   Scattered Clouds
4:01 AM 37.4 °F 37.4 °F 100% 29.81 in 0.8 mi Calm Calm - N/A   Mist
4:22 AM 37.4 °F 37.4 °F 100% 29.82 in 1.2 mi Calm Calm - N/A   Mostly Cloudy
4:29 AM 37.4 °F 37.4 °F 100% 29.82 in 2.0 mi Calm Calm - N/A   Mostly Cloudy
4:36 AM 35.6 °F 35.6 °F 100% 29.82 in 2.5 mi Calm Calm - N/A   Scattered Clouds
4:42 AM 35.6 °F 35.6 °F 100% 29.82 in 1.2 mi Calm Calm - N/A   Mostly Cloudy
4:44 AM 35.6 °F 35.6 °F 100% 29.82 in 0.8 mi Calm Calm - N/A   Mist
4:52 AM 37.0 °F 36.0 °F 96% 29.83 in 0.5 mi Calm Calm - N/A Fog Fog
5:05 AM 37.4 °F 35.6 °F 93% 29.82 in 1.2 mi Calm Calm - N/A   Scattered Clouds
5:08 AM 35.6 °F 35.6 °F 100% 29.82 in 2.5 mi Calm Calm - N/A   Partly Cloudy
5:15 AM 37.4 °F 35.6 °F 93% 29.82 in 9.0 mi Calm Calm - N/A   Clear
7:05 AM 35.6 °F 33.8 °F 93% 29.84 in 1.8 mi Calm Calm - N/A   Clear
7:14 AM 35.6 °F 33.8 °F 93% 29.85 in 3.0 mi Calm Calm - N/A   Clear
7:29 AM 35.6 °F 33.8 °F 93% 29.85 in 1.8 mi Calm Calm - N/A   Clear
7:39 AM 35.6 °F 35.6 °F 100% 29.85 in 4.0 mi Calm Calm - N/A   Clear
7:52 AM 36.0 °F 36.0 °F 100% 29.87 in 7.0 mi Calm Calm - N/A   Partly Cloudy
9:52 AM 50.0 °F 44.1 °F 80% 29.88 in 10.0 mi Calm Calm - N/A   Overcast
11:52 AM 57.9 °F 39.9 °F 51% 29.89 in 10.0 mi West 17.3 mph 25.3 mph 0.01 in   Scattered Clouds
1:52 PM 57.9 °F 37.9 °F 47% 29.87 in 10.0 mi WNW 15.0 mph 21.9 mph N/A   Overcast
2:52 PM 60.1 °F 37.0 °F 42% 29.87 in 10.0 mi WNW 18.4 mph 26.5 mph N/A   Mostly Cloudy
3:52 PM 60.1 °F 37.9 °F 44% 29.86 in 10.0 mi West 12.7 mph 27.6 mph N/A   Partly Cloudy
4:52 PM 57.9 °F 37.9 °F 47% 29.86 in 10.0 mi West 13.8 mph 24.2 mph N/A   Partly Cloudy
5:52 PM 57.0 °F 39.0 °F 51% 29.88 in 10.0 mi West 10.4 mph - N/A   Overcast
6:52 PM 57.0 °F 37.9 °F 49% 29.89 in 10.0 mi West 15.0 mph 23.0 mph N/A   Mostly Cloudy
7:52 PM 55.9 °F 39.0 °F 53% 29.91 in 10.0 mi West 11.5 mph - N/A   Overcast
8:52 PM 55.0 °F 39.9 °F 57% 29.90 in 10.0 mi West 10.4 mph 18.4 mph N/A   Partly Cloudy
9:52 PM 55.0 °F 41.0 °F 59% 29.91 in 10.0 mi West 11.5 mph 19.6 mph N/A   Scattered Clouds
11:52 PM 54.0 °F 42.1 °F 64% 29.91 in 10.0 mi WNW 5.8 mph - N/A   Overcast